DW0435 San German PR US current weather conditions

sailwx.info

Air temperature 22.2° C
Dewpoint 21.0° C

Last reported at 2018-May-21 03:00 UTC.
Time now 2018-May-21 03:22 UTC

Location: N 18°05' W 067°02'.
View on Google Maps.

See reports from other nearby stations

  
Tides and Currents Weather Stations Pressure Air Temp Water Temp Dewpoint Dewpoint Depression Visibility Wind Speed Wind Dir Waves Ship Positions
date/time (UTC)wind fromknots sea level pressurealtimeterstation pressurevisibilityair tempwater tempwave heightnotes
2018-May-21 03:00 22.2
2018-May-21 02:50 22.2
2018-May-21 02:40 22.2
2018-May-21 02:30 22.2
2018-May-21 02:20 22.2
2018-May-21 02:10 22.2
2018-May-21 02:00 22.8
2018-May-21 01:50 22.8
2018-May-21 01:40 22.8
2018-May-21 01:30 23.3
2018-May-21 01:20 23.3
2018-May-21 01:10 23.3
2018-May-21 01:00 23.3
2018-May-21 00:50 23.3
2018-May-21 00:40 23.9
2018-May-21 00:30 23.9
2018-May-21 00:20 23.9
2018-May-21 00:10 23.9
2018-May-21 00:00 23.9
2018-May-20 23:50 005 24.4
2018-May-20 23:40 24.4
2018-May-20 23:30 24.4
2018-May-20 23:20 25.0
2018-May-20 23:10 25.0
2018-May-20 23:00 25.0
2018-May-20 22:50 25.0
2018-May-20 22:40 25.0
2018-May-20 22:30 353 0 gusting 3 25.0
2018-May-20 22:20 315 25.0
2018-May-20 22:10 314 25.6
2018-May-20 22:00 008 25.0
2018-May-20 21:50 358 2 gusting 6 25.0
2018-May-20 21:40 004 2 gusting 6 25.6
2018-May-20 21:30 043 25.6
2018-May-20 21:20 010 25.0
2018-May-20 21:10 012 25.6
2018-May-20 21:00 040 0 gusting 7 25.6
2018-May-20 20:50 102 0 gusting 9 26.1
2018-May-20 20:40 25.6
2018-May-20 20:30 25.6
2018-May-20 20:20 051 25.0
2018-May-20 20:10 25.0
2018-May-20 20:00 246 0 gusting 4 25.0
2018-May-20 19:50 329 25.0
2018-May-20 19:40 329 1 gusting 6 25.6
2018-May-20 19:30 075 0 gusting 6 26.1
2018-May-20 19:20 338 2 gusting 6 26.7
2018-May-20 19:10 328 1 gusting 5 27.2
2018-May-20 19:00 002 2 gusting 9 28.3
2018-May-20 18:50 157 3 gusting 4 30.0
2018-May-20 18:45 149 3 gusting 10 30.6
2018-May-20 18:35 142 6 gusting 15 31.1
2018-May-20 18:25 146 4 gusting 11 31.1
2018-May-20 18:15 151 6 gusting 13 31.7
2018-May-20 18:05 152 5 gusting 13 32.2
2018-May-20 17:55 151 7 gusting 15 31.7
2018-May-20 17:45 132 6 gusting 14 31.7
2018-May-20 17:35 136 6 gusting 13 32.2
2018-May-20 17:25 137 7 gusting 13 31.7
2018-May-20 17:15 152 6 gusting 12 32.2
2018-May-20 17:05 140 6 gusting 14 31.7
2018-May-20 16:55 138 6 gusting 12 32.2
2018-May-20 16:45 146 6 gusting 13 31.7
2018-May-20 16:35 135 3 gusting 14 31.7
2018-May-20 16:25 153 6 gusting 13 31.7
2018-May-20 16:15 142 5 gusting 16 31.7
2018-May-20 16:05 125 6 gusting 14 31.7
2018-May-20 15:55 157 5 gusting 13 31.7
2018-May-20 15:45 133 3 gusting 13 31.7
2018-May-20 15:35 141 4 gusting 12 31.7
2018-May-20 15:25 138 4 gusting 11 31.7
2018-May-20 15:15 128 5 gusting 11 31.7
2018-May-20 15:05 115 6 gusting 12 31.1
2018-May-20 14:55 129 5 gusting 12 31.1
2018-May-20 14:45 126 4 gusting 13 30.6
2018-May-20 14:35 118 6 gusting 12 30.0
2018-May-20 14:25 134 5 gusting 13 30.6
2018-May-20 14:15 118 4 gusting 13 30.6
2018-May-20 14:05 104 4 gusting 11 30.0
2018-May-20 13:55 120 4 gusting 12 30.0
2018-May-20 13:45 129 4 gusting 12 29.4
2018-May-20 13:35 111 6 gusting 14 29.4
2018-May-20 13:25 116 6 gusting 13 29.4
2018-May-20 13:15 122 3 gusting 12 29.4
2018-May-20 13:05 111 6 gusting 16 28.9
2018-May-20 12:55 131 4 gusting 10 28.9
2018-May-20 12:45 126 2 gusting 8 28.9
2018-May-20 12:35 135 3 gusting 8 28.3
2018-May-20 12:25 107 1 gusting 7 27.8
2018-May-20 12:15 146 26.7
2018-May-20 12:05 124 26.1
2018-May-20 11:55 25.6
2018-May-20 11:45 24.4
2018-May-20 11:35 23.9
2018-May-20 11:25 23.9
2018-May-20 11:15 23.3
2018-May-20 11:05 22.2
2018-May-20 10:55 21.7
2018-May-20 10:45 21.1
2018-May-20 10:35 21.1
2018-May-20 10:25 20.6
2018-May-20 10:15 20.6
2018-May-20 10:05 20.6
2018-May-20 09:55 20.6
2018-May-20 09:45 20.6
2018-May-20 09:35 20.6
2018-May-20 09:25 20.6
2018-May-20 09:15 20.6
2018-May-20 09:05 20.6
2018-May-20 08:55 20.6
2018-May-20 08:45 20.6
2018-May-20 08:35 20.6
2018-May-20 08:25 20.6
2018-May-20 08:15 20.6
2018-May-20 08:05 20.6
2018-May-20 07:55 20.6
2018-May-20 07:45 20.6
2018-May-20 07:35 20.6
2018-May-20 07:25 20.6
2018-May-20 07:15 21.1
2018-May-20 07:05 20.6
2018-May-20 06:55 21.1
2018-May-20 06:45 21.1
2018-May-20 06:35 21.1
2018-May-20 06:25 21.1
2018-May-20 06:15 21.1
2018-May-20 06:05 21.1
2018-May-20 05:55 21.1
2018-May-20 05:45 21.1
2018-May-20 05:35 21.1
2018-May-20 05:25 21.1
2018-May-20 05:15 21.1
2018-May-20 05:05 21.7
2018-May-20 04:55 21.7
2018-May-20 04:45 21.7
2018-May-20 04:35 21.7
2018-May-20 04:25 21.7
2018-May-20 04:15 21.7
2018-May-20 04:05 21.7
2018-May-20 03:55 22.2
2018-May-20 03:45 030 22.2
2018-May-20 03:35 22.2
2018-May-20 03:25 22.2
2018-May-20 03:15 22.2
2018-May-20 03:05 22.8
2018-May-20 02:55 22.8
2018-May-20 02:45 23.3
2018-May-20 02:35 22.8
2018-May-20 02:25 22.8
2018-May-20 02:15 23.3
2018-May-20 02:05 23.3
2018-May-20 01:55 23.3
2018-May-20 01:45 23.3
2018-May-20 01:35 23.3
2018-May-20 01:25 23.3
2018-May-20 01:15 23.9
2018-May-20 01:05 23.9
2018-May-20 00:55 23.9
2018-May-20 00:45 23.9
2018-May-20 00:35 24.4
2018-May-20 00:25 24.4
2018-May-20 00:15 25.0
2018-May-20 00:05 25.6
2018-May-19 23:55 25.6
2018-May-19 23:45 25.6
2018-May-19 23:35 26.1
2018-May-19 23:25 26.1
2018-May-19 23:15 120 26.7
2018-May-19 23:05 118 0 gusting 5 26.7
2018-May-19 22:55 119 1 gusting 6 26.7
2018-May-19 22:45 114 4 gusting 11 27.2
2018-May-19 22:35 139 3 gusting 9 27.2
2018-May-19 22:25 128 3 gusting 6 27.2
2018-May-19 22:20 140 5 gusting 9 27.2
2018-May-19 22:10 147 3 gusting 7 27.2
2018-May-19 22:00 151 4 gusting 8 27.2
2018-May-19 21:50 142 4 gusting 10 27.8
2018-May-19 21:40 132 5 gusting 10 27.8
2018-May-19 21:30 135 6 gusting 15 27.8
2018-May-19 21:20 142 6 gusting 13 27.8
2018-May-19 21:10 123 6 gusting 14 27.8
2018-May-19 21:00 130 6 gusting 16 28.3
2018-May-19 20:50 136 7 gusting 17 28.3
2018-May-19 20:40 128 6 gusting 16 28.9
2018-May-19 20:30 143 6 gusting 14 29.4
2018-May-19 20:20 150 6 gusting 15 30.0
2018-May-19 20:10 139 6 gusting 15 29.4
2018-May-19 20:00 136 6 gusting 14 28.9
2018-May-19 19:50 144 6 gusting 13 28.9
2018-May-19 19:40 141 6 gusting 13 29.4
2018-May-19 19:30 133 6 gusting 14 30.0
2018-May-19 19:20 128 8 gusting 16 30.6
2018-May-19 19:10 126 6 gusting 19 30.6
2018-May-19 19:00 132 7 gusting 17 30.6
2018-May-19 18:50 123 8 gusting 17 30.6
2018-May-19 18:40 134 6 gusting 18 30.6
2018-May-19 18:30 135 6 gusting 17 30.6
2018-May-19 18:20 135 5 gusting 14 30.0
2018-May-19 18:10 127 7 gusting 16 31.1
2018-May-19 18:00 139 6 gusting 14 30.6
2018-May-19 17:50 135 6 gusting 13 30.0
2018-May-19 17:40 127 6 gusting 13 29.4
2018-May-19 17:30 118 6 gusting 13 29.4
2018-May-19 17:20 122 6 gusting 13 29.4
2018-May-19 17:10 135 6 gusting 13 30.6
2018-May-19 17:00 133 6 gusting 16 30.6
2018-May-19 16:50 127 6 gusting 13 30.6
2018-May-19 16:40 138 6 gusting 14 30.6
2018-May-19 16:30 129 6 gusting 13 30.6
2018-May-19 16:20 131 6 gusting 12 30.0
2018-May-19 16:10 136 7 gusting 14 30.6
2018-May-19 16:00 126 7 gusting 18 30.6
2018-May-19 15:50 129 6 gusting 13 30.0
2018-May-19 15:40 116 6 gusting 12 30.6
2018-May-19 15:30 133 6 gusting 13 30.6
2018-May-19 15:20 137 6 gusting 12 30.0
2018-May-19 15:10 159 5 gusting 12 30.6
2018-May-19 15:00 141 5 gusting 12 30.6
2018-May-19 14:50 133 6 gusting 11 30.6
2018-May-19 14:40 129 4 gusting 11 30.6
2018-May-19 14:30 113 4 gusting 11 30.0
2018-May-19 14:20 136 5 gusting 7 30.0
2018-May-19 14:15 125 6 gusting 16 30.0
2018-May-19 14:05 127 7 gusting 12 29.4
2018-May-19 13:55 128 5 gusting 10 29.4
2018-May-19 13:45 132 5 gusting 15 29.4
2018-May-19 13:35 136 6 gusting 14 28.9
2018-May-19 13:25 127 5 gusting 11 28.9
2018-May-19 13:15 123 6 gusting 13 28.3
2018-May-19 13:05 131 6 gusting 11 28.3
2018-May-19 12:55 125 4 gusting 10 27.8
2018-May-19 12:45 124 4 gusting 12 27.2
2018-May-19 12:35 158 26.7
2018-May-19 12:25 091 26.1
2018-May-19 12:15 25.6
2018-May-19 12:05 25.0
2018-May-19 11:55 23.9
2018-May-19 11:45 23.3
2018-May-19 11:35 22.2
2018-May-19 11:25 22.2
2018-May-19 11:15 21.7
2018-May-19 11:05 103 20.6
2018-May-19 10:55 20.6
2018-May-19 10:45 20.0
2018-May-19 10:35 20.0
2018-May-19 10:25 19.4
2018-May-19 10:15 19.4
2018-May-19 10:05 19.4
2018-May-19 09:55 19.4
2018-May-19 09:45 19.4
2018-May-19 09:35 19.4
2018-May-19 09:25 20.0
2018-May-19 09:15 19.4
2018-May-19 09:05 19.4
2018-May-19 08:55 19.4
2018-May-19 08:45 19.4
2018-May-19 08:35 141 20.0
2018-May-19 08:25 19.4
2018-May-19 08:15 20.0
2018-May-19 08:05 20.0
2018-May-19 07:55 141 20.0
2018-May-19 07:45 141 20.0
2018-May-19 07:35 20.0
2018-May-19 07:25 20.0
2018-May-19 07:15 20.0
2018-May-19 07:05 20.0
2018-May-19 06:55 20.0
2018-May-19 06:45 20.0
2018-May-19 06:35 20.0
2018-May-19 06:25 20.0
2018-May-19 06:15 20.0
2018-May-19 06:05 20.0
2018-May-19 05:55 20.6
2018-May-19 05:45 20.6
2018-May-19 05:35 20.6
2018-May-19 05:25 20.6
2018-May-19 05:15 20.6
2018-May-19 05:05 20.6
2018-May-19 04:55 20.6
2018-May-19 04:45 298 20.6
2018-May-19 04:35 20.6
2018-May-19 04:25 21.1
2018-May-19 04:15 298 21.1
2018-May-19 04:05 21.1
2018-May-19 03:55 21.1
2018-May-19 03:45 298 21.1
2018-May-19 03:35 21.1
2018-May-19 03:25 21.1
2018-May-19 03:15 21.7
2018-May-19 03:05 21.7